ITY7875 EDDH-ENGM

Flight info

Callsign ITY7875
Flight time 1h 9m
Altitude 35000
Route SOKWO1G SOKWO T814 EXNEL M105 AMRAK DCT NERDO/N0457F360 DCT PIPEX/N0456F370 M609 RIPAM
Aircraft A320/M-SDE3FGHIRWY/LB1

Departure

Time 2026-05-05 11:36
Airport Hamburg Helmut Schmidt Airport (EDDH)

Arrival

Time 2026-05-05 12:45
Airport Oslo-Gardermoen International Airport (ENGM)
Time Latitude Longitude Altitude Speed Heading
2026-05-05 11:19 53.63449 10.00314 47 ft 0 kts 86°
2026-05-05 11:30 53.63449 10.00309 48 ft 3 kts 87°
2026-05-05 11:30 53.63450 10.00267 47 ft 4 kts 110°
2026-05-05 11:30 53.63465 10.00231 45 ft 4 kts 146°
2026-05-05 11:31 53.63488 10.00215 44 ft 2 kts 175°
2026-05-05 11:31 53.63490 10.00214 44 ft 0 kts 176°
2026-05-05 11:33 53.63479 10.00216 44 ft 5 kts 176°
2026-05-05 11:33 53.63413 10.00223 48 ft 14 kts 176°
2026-05-05 11:33 53.63288 10.00239 48 ft 22 kts 175°
2026-05-05 11:33 53.63121 10.00262 48 ft 22 kts 175°
2026-05-05 11:34 53.62984 10.00173 47 ft 22 kts 212°
2026-05-05 11:34 53.62880 10.00053 46 ft 18 kts 228°
2026-05-05 11:34 53.62816 9.99860 44 ft 13 kts 252°
2026-05-05 11:34 53.62858 9.99754 45 ft 12 kts 332°
2026-05-05 11:35 53.62965 9.99662 45 ft 32 kts 332°
2026-05-05 11:35 53.63401 9.99283 44 ft 105 kts 332°
2026-05-05 11:35 53.64233 9.98564 55 ft 161 kts 332°
2026-05-05 11:35 53.65257 9.97645 585 ft 165 kts 334°
2026-05-05 11:36 53.66282 9.96785 1344 ft 165 kts 336°
2026-05-05 11:36 53.67347 9.95884 1855 ft 182 kts 336°
2026-05-05 11:36 53.68562 9.94931 2260 ft 204 kts 345°
2026-05-05 11:36 53.70008 9.94684 2941 ft 212 kts
2026-05-05 11:37 53.71498 9.94705 3797 ft 216 kts 359°
2026-05-05 11:37 53.73019 9.94803 4580 ft 223 kts
2026-05-05 11:37 53.74489 9.95730 5141 ft 241 kts 30°
2026-05-05 11:37 53.75971 9.97345 5563 ft 266 kts 31°
2026-05-05 11:38 53.77558 9.99087 6299 ft 277 kts 31°
2026-05-05 11:38 53.79191 10.00883 7117 ft 283 kts 31°
2026-05-05 11:38 53.80853 10.02711 7953 ft 288 kts 31°
2026-05-05 11:38 53.82546 10.04573 8815 ft 293 kts 31°
2026-05-05 11:39 53.84272 10.06467 9611 ft 299 kts 31°
2026-05-05 11:39 53.86045 10.08403 10194 ft 312 kts 31°
2026-05-05 11:39 53.88044 10.10128 10447 ft 333 kts 17°
2026-05-05 11:39 53.90341 10.10933 10962 ft 341 kts
2026-05-05 11:40 53.92672 10.10698 11684 ft 341 kts 346°
2026-05-05 11:40 53.94984 10.09761 12450 ft 344 kts 343°
2026-05-05 11:40 53.97315 10.08778 13233 ft 347 kts 343°
2026-05-05 11:40 53.99674 10.07779 13962 ft 351 kts 343°
2026-05-05 11:41 54.02046 10.06768 14634 ft 354 kts 342°
2026-05-05 11:41 54.04443 10.05743 15310 ft 357 kts 342°
2026-05-05 11:41 54.06867 10.04722 15969 ft 360 kts 342°
2026-05-05 11:41 54.09269 10.03482 16633 ft 360 kts 334°
2026-05-05 11:42 54.11443 10.01525 17283 ft 359 kts 322°
2026-05-05 11:42 54.13385 9.98865 17953 ft 358 kts 312°
2026-05-05 11:42 54.15065 9.95733 18573 ft 359 kts 308°
2026-05-05 11:42 54.16733 9.92553 19158 ft 361 kts 308°
2026-05-05 11:43 54.18419 9.89342 19725 ft 364 kts 308°
2026-05-05 11:43 54.20108 9.86116 20304 ft 366 kts 308°
2026-05-05 11:43 54.21811 9.82856 20900 ft 368 kts 308°
2026-05-05 11:43 54.23506 9.79632 21467 ft 371 kts 309°
2026-05-05 11:44 54.25436 9.76656 22051 ft 378 kts 319°
2026-05-05 11:44 54.27579 9.74003 22622 ft 381 kts 320°
2026-05-05 11:44 54.29732 9.71334 23181 ft 384 kts 319°
2026-05-05 11:44 54.31895 9.68633 23690 ft 386 kts 319°
2026-05-05 11:45 54.34140 9.66064 24126 ft 393 kts 327°
2026-05-05 11:45 54.36685 9.64223 24545 ft 402 kts 339°
2026-05-05 11:45 54.39451 9.63284 24962 ft 411 kts 352°
2026-05-05 11:45 54.42333 9.63336 25369 ft 418 kts
2026-05-05 11:46 54.45213 9.64226 25765 ft 422 kts
2026-05-05 11:46 54.48062 9.65178 26159 ft 425 kts
2026-05-05 11:46 54.50974 9.66142 26544 ft 427 kts
2026-05-05 11:46 54.53902 9.67100 26930 ft 429 kts
2026-05-05 11:47 54.56847 9.68035 27309 ft 431 kts
2026-05-05 11:47 54.59802 9.68962 27684 ft 434 kts
2026-05-05 11:47 54.62779 9.69890 28074 ft 436 kts
2026-05-05 11:47 54.65771 9.70819 28453 ft 437 kts
2026-05-05 11:48 54.71770 9.72439 29166 ft 440 kts
2026-05-05 11:48 54.74809 9.73175 29509 ft 442 kts
2026-05-05 11:48 54.77862 9.73910 29832 ft 444 kts
2026-05-05 11:49 54.80934 9.74625 30133 ft 445 kts
2026-05-05 11:49 54.84027 9.74775 30386 ft 444 kts 354°
2026-05-05 11:49 54.87106 9.74326 30638 ft 445 kts 352°
2026-05-05 11:49 54.90214 9.73834 30877 ft 447 kts 351°
2026-05-05 11:50 54.93324 9.73343 31106 ft 450 kts 351°
2026-05-05 11:50 54.96443 9.72849 31335 ft 451 kts 351°
2026-05-05 11:50 54.99576 9.72348 31613 ft 451 kts 351°
2026-05-05 11:50 55.02655 9.71859 31940 ft 451 kts 351°
2026-05-05 11:51 55.05776 9.71365 32274 ft 450 kts 351°
2026-05-05 11:51 55.08895 9.70873 32603 ft 449 kts 351°
2026-05-05 11:51 55.11999 9.70380 32927 ft 448 kts 351°
2026-05-05 11:51 55.15108 9.69883 33261 ft 448 kts 351°
2026-05-05 11:52 55.18211 9.69384 33544 ft 448 kts 351°
2026-05-05 11:52 55.21321 9.68885 33853 ft 448 kts 351°
2026-05-05 11:52 55.24420 9.68387 34145 ft 448 kts 351°
2026-05-05 11:52 55.27522 9.67890 34414 ft 447 kts 351°
2026-05-05 11:53 55.30623 9.67394 34660 ft 447 kts 351°
2026-05-05 11:53 55.33678 9.66901 34879 ft 448 kts 350°
2026-05-05 11:53 55.39840 9.65908 34967 ft 441 kts 350°
2026-05-05 11:54 55.45937 9.64909 34967 ft 440 kts 349°
2026-05-05 11:54 55.52033 9.63903 34965 ft 440 kts 349°
2026-05-05 11:55 55.58122 9.62918 34964 ft 440 kts 350°
2026-05-05 11:55 55.64174 9.61937 34969 ft 440 kts 350°
2026-05-05 11:56 55.70260 9.60934 34965 ft 440 kts 349°
2026-05-05 11:56 55.76351 9.59924 34968 ft 439 kts 349°
2026-05-05 11:57 55.82403 9.58928 34963 ft 439 kts 349°
2026-05-05 11:57 55.88483 9.57920 34958 ft 439 kts 349°
2026-05-05 11:58 55.94567 9.56910 34989 ft 439 kts 349°
2026-05-05 11:58 56.00654 9.55895 34975 ft 439 kts 349°
2026-05-05 11:59 56.06735 9.54877 34973 ft 439 kts 349°
2026-05-05 11:59 56.12774 9.53864 34964 ft 439 kts 349°
2026-05-05 12:00 56.18849 9.52841 34959 ft 439 kts 349°
2026-05-05 12:00 56.24928 9.51808 34977 ft 439 kts 349°
2026-05-05 12:01 56.31011 9.50781 34972 ft 439 kts 349°
2026-05-05 12:01 56.37096 9.49749 34969 ft 439 kts 349°
2026-05-05 12:02 56.43138 9.48723 34969 ft 439 kts 349°
2026-05-05 12:02 56.49220 9.47680 35006 ft 439 kts 348°
2026-05-05 12:03 56.55308 9.46633 34996 ft 439 kts 348°
2026-05-05 12:03 56.61392 9.45595 34994 ft 439 kts 348°
2026-05-05 12:04 56.67426 9.44554 34969 ft 438 kts 348°
2026-05-05 12:04 56.73547 9.43488 34964 ft 439 kts 348°
2026-05-05 12:05 56.79621 9.42427 34991 ft 438 kts 347°
2026-05-05 12:05 56.85654 9.41374 34988 ft 438 kts 347°
2026-05-05 12:06 56.91723 9.40312 34999 ft 438 kts 347°
2026-05-05 12:06 56.97795 9.39241 34992 ft 438 kts 347°
2026-05-05 12:07 57.03858 9.38177 35034 ft 438 kts 347°
2026-05-05 12:07 57.09872 9.37117 34987 ft 436 kts 347°
2026-05-05 12:08 57.15911 9.36045 34987 ft 436 kts 347°
2026-05-05 12:08 57.18931 9.35506 35211 ft 436 kts 347°
2026-05-05 12:08 57.21953 9.34968 35458 ft 437 kts 347°
2026-05-05 12:09 57.24975 9.34428 35705 ft 437 kts 347°
2026-05-05 12:09 57.27998 9.33887 35912 ft 438 kts 347°
2026-05-05 12:09 57.31000 9.33344 36021 ft 440 kts 347°
2026-05-05 12:09 57.34046 9.32795 35984 ft 440 kts 347°
2026-05-05 12:10 57.40138 9.31711 35991 ft 440 kts 347°
2026-05-05 12:10 57.46229 9.30618 35991 ft 440 kts 347°
2026-05-05 12:11 57.52319 9.29514 35979 ft 440 kts 347°
2026-05-05 12:11 57.58375 9.28415 35986 ft 440 kts 347°
2026-05-05 12:12 57.64459 9.27311 36009 ft 439 kts 347°
2026-05-05 12:12 57.70538 9.26191 35998 ft 439 kts 347°
2026-05-05 12:13 57.76615 9.25074 35994 ft 439 kts 347°
2026-05-05 12:13 57.82650 9.23970 35989 ft 439 kts 347°
2026-05-05 12:14 57.88721 9.22844 36022 ft 438 kts 346°
2026-05-05 12:14 57.94789 9.21701 36008 ft 438 kts 346°
2026-05-05 12:15 58.00858 9.20547 36015 ft 438 kts 346°
2026-05-05 12:15 58.06925 9.19372 36002 ft 438 kts 346°
2026-05-05 12:16 58.12955 9.18230 35995 ft 439 kts 346°
2026-05-05 12:16 58.19029 9.17080 35981 ft 438 kts 346°
2026-05-05 12:17 58.25096 9.15919 35967 ft 438 kts 346°
2026-05-05 12:17 58.31160 9.14744 35957 ft 438 kts 346°
2026-05-05 12:18 58.37190 9.13566 35960 ft 439 kts 346°
2026-05-05 12:18 58.43264 9.12381 35960 ft 439 kts 346°
2026-05-05 12:19 58.49337 9.11199 35953 ft 439 kts 346°
2026-05-05 12:19 58.55413 9.10020 35924 ft 440 kts 346°
2026-05-05 12:20 58.58461 9.09427 35668 ft 439 kts 346°
2026-05-05 12:20 58.61453 9.08840 35426 ft 439 kts 346°
2026-05-05 12:20 58.64486 9.08246 35070 ft 436 kts 345°
2026-05-05 12:20 58.67492 9.07652 34532 ft 433 kts 345°
2026-05-05 12:21 58.70483 9.07063 33978 ft 431 kts 344°
2026-05-05 12:21 58.73453 9.06477 33385 ft 429 kts 344°
2026-05-05 12:21 58.76404 9.05897 32840 ft 424 kts 344°
2026-05-05 12:21 58.79333 9.05370 32308 ft 424 kts 347°
2026-05-05 12:22 58.82314 9.05641 31764 ft 435 kts 359°
2026-05-05 12:22 58.85245 9.07033 31209 ft 447 kts 11°
2026-05-05 12:22 58.88087 9.09640 30632 ft 460 kts 24°
2026-05-05 12:22 58.90693 9.13334 30046 ft 467 kts 31°
2026-05-05 12:23 58.93229 9.17244 29400 ft 465 kts 31°
2026-05-05 12:23 58.95748 9.21144 28826 ft 462 kts 31°
2026-05-05 12:23 58.98242 9.25014 28266 ft 458 kts 31°
2026-05-05 12:23 59.00726 9.28859 27721 ft 457 kts 30°
2026-05-05 12:24 59.03209 9.32695 27185 ft 453 kts 30°
2026-05-05 12:24 59.05630 9.36442 26655 ft 450 kts 30°
2026-05-05 12:24 59.08070 9.40230 26132 ft 448 kts 30°
2026-05-05 12:24 59.10496 9.44011 25598 ft 445 kts 30°
2026-05-05 12:25 59.12904 9.47780 25069 ft 443 kts 30°
2026-05-05 12:25 59.15298 9.51541 24523 ft 442 kts 30°
2026-05-05 12:25 59.17687 9.55290 24023 ft 440 kts 30°
2026-05-05 12:25 59.20136 9.58755 23531 ft 430 kts 23°
2026-05-05 12:26 59.22628 9.61936 22990 ft 427 kts 23°
2026-05-05 12:26 59.25061 9.65060 22580 ft 423 kts 22°
2026-05-05 12:26 59.27518 9.68222 22008 ft 422 kts 22°
2026-05-05 12:26 59.29962 9.71376 21536 ft 418 kts 22°
2026-05-05 12:27 59.32362 9.74494 21257 ft 411 kts 24°
2026-05-05 12:27 59.34608 9.77926 21121 ft 404 kts 29°
2026-05-05 12:27 59.36761 9.81363 20816 ft 397 kts 28°
2026-05-05 12:27 59.38885 9.84748 20565 ft 388 kts 28°
2026-05-05 12:28 59.40964 9.88057 20254 ft 383 kts 28°
2026-05-05 12:28 59.42330 9.90232 20025 ft 380 kts 28°
2026-05-05 12:28 59.45038 9.94543 19516 ft 377 kts 28°
2026-05-05 12:28 59.47065 9.97776 19166 ft 374 kts 28°
2026-05-05 12:29 59.49080 10.01001 18792 ft 372 kts 29°
2026-05-05 12:29 59.51077 10.04205 18539 ft 368 kts 30°
2026-05-05 12:29 59.53044 10.07374 18232 ft 364 kts 30°
2026-05-05 12:29 59.54997 10.10525 17858 ft 361 kts 31°
2026-05-05 12:30 59.56278 10.12593 17634 ft 359 kts 31°
2026-05-05 12:30 59.58195 10.15692 17281 ft 354 kts 31°
2026-05-05 12:30 59.60700 10.19750 16791 ft 349 kts 31°
2026-05-05 12:30 59.62565 10.22776 16464 ft 345 kts 31°
2026-05-05 12:31 59.64415 10.25776 16159 ft 342 kts 32°
2026-05-05 12:31 59.66244 10.28741 15868 ft 339 kts 32°
2026-05-05 12:31 59.67445 10.30691 15641 ft 336 kts 32°
2026-05-05 12:31 59.69245 10.33620 15340 ft 333 kts 32°
2026-05-05 12:32 59.71018 10.36516 15154 ft 326 kts 32°
2026-05-05 12:32 59.72870 10.38788 15021 ft 301 kts
2026-05-05 12:32 59.74831 10.39246 14890 ft 272 kts 343°
2026-05-05 12:32 59.76992 10.37529 14753 ft 242 kts 316°
2026-05-05 12:33 59.77846 10.36092 14615 ft 236 kts 314°
2026-05-05 12:33 59.79084 10.33978 14380 ft 234 kts 315°
2026-05-05 12:33 59.80306 10.31904 14105 ft 234 kts 315°
2026-05-05 12:33 59.81537 10.29813 13823 ft 233 kts 316°
2026-05-05 12:34 59.82948 10.28179 13517 ft 239 kts 337°
2026-05-05 12:34 59.84623 10.27917 13228 ft 251 kts
2026-05-05 12:34 59.86226 10.29437 12934 ft 266 kts 37°
2026-05-05 12:34 59.87265 10.32533 12612 ft 275 kts 62°
2026-05-05 12:35 59.88021 10.36045 12282 ft 276 kts 63°
2026-05-05 12:35 59.88763 10.39552 11978 ft 275 kts 63°
2026-05-05 12:35 59.89513 10.43105 11469 ft 281 kts 63°
2026-05-05 12:35 59.90268 10.46672 10977 ft 286 kts 63°
2026-05-05 12:36 59.91050 10.50353 10470 ft 291 kts 63°
2026-05-05 12:36 59.91844 10.54091 9982 ft 295 kts 64°
2026-05-05 12:36 59.92608 10.57917 9446 ft 301 kts 71°
2026-05-05 12:36 59.92783 10.62115 8853 ft 309 kts 91°
2026-05-05 12:37 59.92625 10.66411 8252 ft 313 kts 94°
2026-05-05 12:37 59.92434 10.70747 7655 ft 316 kts 94°
2026-05-05 12:37 59.92237 10.75130 7063 ft 319 kts 94°
2026-05-05 12:37 59.92036 10.79551 6477 ft 321 kts 94°
2026-05-05 12:38 59.91833 10.83982 5886 ft 322 kts 94°
2026-05-05 12:38 59.91630 10.88402 5497 ft 316 kts 94°
2026-05-05 12:38 59.91434 10.92637 5206 ft 307 kts 94°
2026-05-05 12:38 59.91240 10.96811 5014 ft 297 kts 94°
2026-05-05 12:39 59.91053 11.00791 5008 ft 279 kts 94°
2026-05-05 12:39 59.90879 11.04501 4988 ft 262 kts 92°
2026-05-05 12:39 59.91078 11.07966 4804 ft 246 kts 64°
2026-05-05 12:39 59.92056 11.10600 4520 ft 232 kts 31°
2026-05-05 12:40 59.93500 11.11714 4181 ft 220 kts 358°
2026-05-05 12:40 59.94992 11.11343 3874 ft 217 kts 344°
2026-05-05 12:40 59.96456 11.10616 3627 ft 217 kts 342°
2026-05-05 12:40 59.97901 11.09856 3512 ft 219 kts 341°
2026-05-05 12:41 59.99361 11.09083 3507 ft 217 kts 341°
2026-05-05 12:41 60.00808 11.08238 3502 ft 216 kts 338°
2026-05-05 12:41 60.02224 11.07252 3176 ft 215 kts 338°
2026-05-05 12:41 60.03607 11.06258 3014 ft 206 kts 336°
2026-05-05 12:42 60.04912 11.05323 3006 ft 192 kts 336°
2026-05-05 12:42 60.06158 11.04629 2996 ft 185 kts 351°
2026-05-05 12:42 60.07435 11.04938 2819 ft 185 kts 12°
2026-05-05 12:42 60.08665 11.05648 2566 ft 183 kts 10°
2026-05-05 12:43 60.09881 11.06350 2325 ft 177 kts 10°
2026-05-05 12:43 60.11004 11.07000 2107 ft 162 kts 11°
2026-05-05 12:43 60.12033 11.07594 1876 ft 148 kts 11°
2026-05-05 12:43 60.13001 11.08149 1673 ft 142 kts
2026-05-05 12:44 60.13930 11.08682 1461 ft 138 kts 11°
2026-05-05 12:44 60.14849 11.09243 1294 ft 138 kts 10°
2026-05-05 12:44 60.15775 11.09759 1138 ft 140 kts 10°
2026-05-05 12:44 60.16709 11.10279 924 ft 138 kts 10°
2026-05-05 12:45 60.17628 11.10806 736 ft 137 kts 12°
2026-05-05 12:45 60.18475 11.11295 691 ft 103 kts 16°
2026-05-05 12:45 60.18949 11.11565 688 ft 57 kts 16°
2026-05-05 12:45 60.19227 11.11702 689 ft 31 kts
2026-05-05 12:46 60.19356 11.11620 688 ft 11 kts 314°
2026-05-05 12:46 60.19374 11.11531 689 ft 4 kts 286°
2026-05-05 12:46 60.19385 11.11457 689 ft 6 kts 286°
2026-05-05 12:46 60.19393 11.11401 685 ft 3 kts 286°
2026-05-05 12:47 60.19403 11.11331 691 ft 11 kts 286°
2026-05-05 12:47 60.19435 11.11112 691 ft 21 kts 286°
2026-05-05 12:47 60.19476 11.10825 691 ft 22 kts 286°
2026-05-05 12:47 60.19518 11.10538 691 ft 19 kts 286°
2026-05-05 12:48 60.19497 11.10384 687 ft 13 kts 198°
2026-05-05 12:48 60.19442 11.10353 691 ft 0 kts 196°